Regional Weather Roundup
Issued by NWS Goodland, KS

Current Version | Previous Version | Text Only | Print | Product List | Glossary On
Versions: 1 2 3 4 5 6 7 8 9 10 11 12 13 14 15 16 17 18 19 20 21 22 23 24 25 26 27 28 29 30 31 32 33 34 35 36 37 38 39 40 41 42 43 44 45 46 47 48 49 50
000
ASUS43 KGLD 270508
RWRGLD

GOODLAND FORECAST AREA HOURLY WEATHER ROUNDUP
NATIONAL WEATHER SERVICE GOODLAND KS
1100 PM MDT FRI AUG 26 2016

...OFFICIAL OBSERVATIONS...

CITY           SKY/WX    TMP DP  RH WIND       PRES   REMARKS
GOODLAND KS    CLOUDY    53  51  93 SE7       30.09R
HILL CITY KS   CLOUDY    60  58  92 SE6       30.07S
IMPERIAL NEB   PTCLDY    52  51  97 CALM      30.08S FOG
MCCOOK NEB     CLEAR     54  53  97 W5        30.05F
AKRON CO       CLEAR     55  50  83 S10       30.11S
BURLINGTON CO  CLOUDY    56  49  77 SE9       30.11S
LIMON CO       CLEAR     49  47  93 S7        30.15S
$$

...UNOFFICIAL OBSERVATIONS...

CITY           SKY/WX    TMP DP  RH WIND       PRES   REMARKS
LENORA KS        N/A     59  32  36 MISG        N/A
SHARON SPRINGS   N/A     63  58  83 SE6         N/A
TRENTON NEB      N/A     53  32  45 MISG        N/A
KIT CARSON CO    N/A     59  52  77 CALM        N/A
YUMA CO          N/A     52  50  93 CALM        N/A
$$



USA.gov is the U.S. government's official web portal to all federal, state and local government web resources and services.